الصفحة الرئيسية
METAR-TAF:

METAR-TAF

مطار :

Mc Elroy Airfield

Kremmling, كولورادو, الولايات المتحدة

دائرة عرض: 40-03-13N, خط طول: 106-22-08W, ارتفاع: 2259 متر

مراقبة الطقس الحالي

تاريخ ووقت الإصدار 25 دقيقة قبل الساعة 22:12UTC
ريح 11 عقدة من الغرب/الجنوب الغربي تتزايد حتى 17 عقدة
درجة الحرارة 25°درجة مئوية
الرطوبة 12%
ضغط 1024 hPa
الرؤية: 16.1 كم
سماء صافية

METAR: K20V 222212Z AUTO 25011G17KT 10SM CLR 25/M06 A3024 RMK AO2

زمن: 16:37 (22:37 UTC)


TAF: مفقودة

أرصاد الطقس والتوقعات من أكثر من 4000 مطار (تقارير الطقس للمطار METAR والتنبؤ بالطقس بالمطارTAF).

المحطات المتاحة هي النقط الصفراء والحمراء على الخريطة.

حرك المؤشر فوق النقطة لمعرفة اسم المحطة.

ثم انقر لمعرفة أرصاد وتوقعات الطقس.

لتغيير الخارطة: اضغط على الأزرار الخضراء مع رمز الصليب الأسود للتكبير. على الزر الأخضر مع شرطة للتصغير، أو على الأسهم الخضراء للخرائط المجاورة.


METAR-TAF: